Simultaneous Nadir Overpasses (SNOs) Predictions

Prediction of SNOs between NOAA-20 and NOAA-19 Satellite Orbit:

Table of predicted SNOs for the next 14.0 days since TLE Epoch: 10/2/2021
Index Date (NOAA-20) Time (NOAA-20) Lat,Lon (NOAA-20) SZA (NOAA-20 ) Date (NOAA-19) Time (NOAA-19) Lat,Lon (NOAA-19) SZA (NOAA-19 ) Distance(km) Time Diff (sec)
1 10/05/2021 08:48:29 77.83, 23.90 83.46 10/05/2021 08:47:20 77.83, 23.85 83.48 1.41 69
2 10/05/2021 09:39:14 -77.85,-168.89 96.50 10/05/2021 09:38:15 -77.84,-168.80 96.51 2.64 59
3 10/05/2021 10:29:59 77.84, -1.50 83.49 10/05/2021 10:29:20 77.84, -1.60 83.51 2.43 39
4 10/05/2021 11:20:44 -77.86, 165.71 96.47 10/05/2021 11:20:15 -77.85, 165.75 96.47 1.53 29
5 10/05/2021 12:11:29 77.84, -26.90 83.53 10/05/2021 12:11:20 77.84, -27.05 83.54 3.57 9
6 10/05/2021 13:02:14 -77.87, 140.31 96.44 10/05/2021 13:02:15 -77.86, 140.30 96.44 0.86 1
7 10/05/2021 13:53:00 77.89, -52.50 83.61 10/05/2021 13:53:20 77.85, -52.50 83.57 4.05 20
8 10/05/2021 14:43:44 -77.87, 114.91 96.40 10/05/2021 14:44:15 -77.87, 114.85 96.41 1.44 31
9 10/05/2021 15:34:30 77.89, -77.90 83.65 10/05/2021 15:35:20 77.86, -77.95 83.60 3.81 50
10 10/05/2021 16:25:14 -77.88, 89.51 96.37 10/05/2021 16:26:15 -77.88, 89.40 96.38 2.52 61
11 10/05/2021 17:16:06 78.14,-104.57 84.00 10/05/2021 17:17:14 78.10,-102.09 83.75 57.07 68



Historial Predications of SNOs between NOAA-20 and NOAA-19
